Location: Niles Junction
(37.5763°N, 121.9714°W)
Time: 12:58:05
(UTC+00:00)

Meteor 2-5 Rocket - Pass Details

Date: 29 October 2020
Orbit: 833 x 911 km, 81.2° (Epoch: 01 December)

Event Time Altitude Azimuth Distance (km) Brightness Sun altitude
Rises 12:43:38 0° 198° (SSW) 3,412 6.7 -21.7°
Reaches altitude 10° 12:46:03 10° 202° (SSW) 2,491 5.9 -21.2°
Maximum altitude 12:51:38 58° 281° (WNW) 1,013 3.7 -20.1°
Drops below altitude 10° 12:57:22 10° 1° (N) 2,559 6.2 -19.0°
Sets 12:59:54 0° 5° (N) 3,514 6.9 -18.5°
